Time,TemperatureF,DewpointF,PressureIn,WindDirection,WindDirectionDegrees,WindSpeedMPH,WindSpeedGustMPH,Humidity,HourlyPrecipIn,Conditions,Clouds,dailyrainin,SolarRadiationWatts/m^2,SoftwareType,DateUTC
2013-08-18 00:21:00,59.0,33.0,-100.00,NNW,346,6.0,8.0,38,0.00,,,0.00,1.000000,,2013-08-18 06:21:00,
2013-08-18 00:31:00,59.0,33.0,-100.00,NNW,346,6.0,8.0,38,0.00,,,0.00,1.000000,,2013-08-18 06:31:00,
2013-08-18 00:42:00,59.0,33.0,-100.00,NNW,346,6.0,8.0,38,0.00,,,0.00,1.000000,,2013-08-18 06:42:00,
2013-08-18 00:52:00,59.0,33.0,-100.00,NNW,346,6.0,8.0,38,0.00,,,0.00,1.000000,,2013-08-18 06:52:00,
2013-08-18 01:21:00,58.0,33.0,-100.00,NNW,339,4.0,8.0,39,0.00,,,-99.99,1.000000,,2013-08-18 07:21:00,
2013-08-18 01:31:00,58.0,33.0,-100.00,NNW,339,4.0,8.0,39,0.00,,,-99.99,1.000000,,2013-08-18 07:31:00,
2013-08-18 01:42:00,58.0,33.0,-100.00,NNW,339,4.0,8.0,39,0.00,,,-99.99,1.000000,,2013-08-18 07:42:00,
2013-08-18 01:52:00,58.0,33.0,-100.00,NNW,339,4.0,8.0,39,0.00,,,-99.99,1.000000,,2013-08-18 07:52:00,
2013-08-18 02:21:00,57.0,33.0,-100.00,NNW,347,4.0,6.0,40,0.00,,,0.00,1.000000,,2013-08-18 08:21:00,
2013-08-18 02:32:00,57.0,33.0,-100.00,NNW,347,4.0,6.0,40,0.00,,,0.00,1.000000,,2013-08-18 08:32:00,
2013-08-18 02:41:00,57.0,33.0,-100.00,NNW,347,4.0,6.0,40,0.00,,,0.00,1.000000,,2013-08-18 08:41:00,
2013-08-18 02:52:00,57.0,33.0,-100.00,NNW,347,4.0,6.0,40,0.00,,,0.00,1.000000,,2013-08-18 08:52:00,
2013-08-18 03:21:00,58.0,32.0,-100.00,NW,323,0.0,4.0,37,0.00,,,0.00,0.000000,,2013-08-18 09:21:00,
2013-08-18 03:33:00,58.0,32.0,-100.00,NW,323,0.0,4.0,37,0.00,,,0.00,0.000000,,2013-08-18 09:33:00,
2013-08-18 03:43:00,58.0,32.0,-100.00,NW,323,0.0,4.0,37,0.00,,,0.00,0.000000,,2013-08-18 09:43:00,
2013-08-18 03:53:00,58.0,32.0,-100.00,NW,323,0.0,4.0,37,0.00,,,0.00,0.000000,,2013-08-18 09:53:00,
2013-08-18 04:22:00,57.0,34.0,-100.00,South,190,2.0,4.0,41,0.00,,,0.00,0.000000,,2013-08-18 10:22:00,
2013-08-18 04:32:00,57.0,34.0,-100.00,South,190,2.0,4.0,41,0.00,,,0.00,0.000000,,2013-08-18 10:32:00,
2013-08-18 04:42:00,57.0,34.0,-100.00,South,190,2.0,4.0,41,0.00,,,0.00,0.000000,,2013-08-18 10:42:00,
2013-08-18 04:52:00,57.0,34.0,-100.00,South,190,2.0,4.0,41,0.00,,,0.00,0.000000,,2013-08-18 10:52:00,
2013-08-18 05:22:00,57.0,34.0,-100.00,East,101,3.0,4.0,41,0.00,,,0.00,1.000000,,2013-08-18 11:22:00,
2013-08-18 05:32:00,57.0,34.0,-100.00,East,101,3.0,4.0,41,0.00,,,0.00,1.000000,,2013-08-18 11:32:00,
2013-08-18 05:42:00,57.0,34.0,-100.00,East,101,3.0,4.0,41,0.00,,,0.00,1.000000,,2013-08-18 11:42:00,
2013-08-18 05:51:00,57.0,34.0,-100.00,East,101,3.0,4.0,41,0.00,,,0.00,1.000000,,2013-08-18 11:51:00,
2013-08-18 06:21:00,55.0,35.0,-100.00,SE,132,3.0,6.0,46,0.00,,,0.00,0.000000,,2013-08-18 12:21:00,
2013-08-18 06:31:00,55.0,35.0,-100.00,SE,132,3.0,6.0,46,0.00,,,0.00,0.000000,,2013-08-18 12:31:00,
2013-08-18 06:41:00,55.0,35.0,-100.00,SE,132,3.0,6.0,46,0.00,,,0.00,0.000000,,2013-08-18 12:41:00,
2013-08-18 06:52:00,55.0,35.0,-100.00,SE,132,3.0,6.0,46,0.00,,,0.00,0.000000,,2013-08-18 12:52:00,
2013-08-18 07:21:00,55.0,36.0,-100.00,ENE,74,1.0,4.0,48,0.00,,,0.00,8.000000,,2013-08-18 13:21:00,
2013-08-18 07:32:00,55.0,36.0,-100.00,ENE,74,1.0,4.0,48,0.00,,,0.00,8.000000,,2013-08-18 13:32:00,
2013-08-18 07:42:00,55.0,36.0,-100.00,ENE,74,1.0,4.0,48,0.00,,,0.00,8.000000,,2013-08-18 13:42:00,
2013-08-18 07:52:00,55.0,36.0,-100.00,ENE,74,1.0,4.0,48,0.00,,,0.00,8.000000,,2013-08-18 13:52:00,
2013-08-18 08:21:00,60.0,38.0,-100.00,SSE,149,5.0,6.0,44,0.00,,,0.00,119.000000,,2013-08-18 14:21:00,
2013-08-18 08:32:00,60.0,38.0,-100.00,SSE,149,5.0,6.0,44,0.00,,,0.00,119.000000,,2013-08-18 14:32:00,
2013-08-18 08:42:00,60.0,38.0,-100.00,SSE,149,5.0,6.0,44,0.00,,,0.00,119.000000,,2013-08-18 14:42:00,
2013-08-18 08:53:00,60.0,38.0,-100.00,SSE,149,5.0,6.0,44,0.00,,,0.00,119.000000,,2013-08-18 14:53:00,
2013-08-18 09:22:00,60.0,41.0,-100.00,SSE,147,3.0,6.0,49,0.00,,,0.00,194.000000,,2013-08-18 15:22:00,
2013-08-18 09:33:00,60.0,41.0,-100.00,SSE,147,3.0,6.0,49,0.00,,,0.00,194.000000,,2013-08-18 15:33:00,
2013-08-18 09:43:00,60.0,41.0,-100.00,SSE,147,3.0,6.0,49,0.00,,,0.00,194.000000,,2013-08-18 15:43:00,
2013-08-18 09:53:00,60.0,41.0,-100.00,SSE,147,3.0,6.0,49,0.00,,,0.00,194.000000,,2013-08-18 15:53:00,
2013-08-18 10:23:00,66.0,41.0,-100.00,WSW,254,6.0,12.0,40,0.00,,,0.00,524.000000,,2013-08-18 16:23:00,
2013-08-18 10:33:00,66.0,41.0,-100.00,WSW,254,6.0,12.0,40,0.00,,,0.00,524.000000,,2013-08-18 16:33:00,
2013-08-18 10:42:00,66.0,41.0,-100.00,WSW,254,6.0,12.0,40,0.00,,,0.00,524.000000,,2013-08-18 16:42:00,
2013-08-18 10:52:00,66.0,41.0,-100.00,WSW,254,6.0,12.0,40,0.00,,,0.00,524.000000,,2013-08-18 16:52:00,
2013-08-18 11:23:00,68.0,40.0,-100.00,South,176,6.0,12.0,36,0.00,,,0.00,745.000000,,2013-08-18 17:23:00,
2013-08-18 11:33:00,68.0,40.0,-100.00,South,176,6.0,12.0,36,0.00,,,0.00,745.000000,,2013-08-18 17:33:00,
2013-08-18 11:42:00,68.0,40.0,-100.00,South,176,6.0,12.0,36,0.00,,,0.00,745.000000,,2013-08-18 17:42:00,
2013-08-18 11:52:00,68.0,40.0,-100.00,South,176,6.0,12.0,36,0.00,,,0.00,745.000000,,2013-08-18 17:52:00,
2013-08-18 12:21:00,70.0,40.0,-100.00,South,179,7.0,13.0,33,0.00,,,0.00,848.000000,,2013-08-18 18:21:00,
2013-08-18 12:32:00,70.0,40.0,-100.00,South,179,7.0,13.0,33,0.00,,,0.00,848.000000,,2013-08-18 18:32:00,
2013-08-18 12:42:00,70.0,40.0,-100.00,South,179,7.0,13.0,33,0.00,,,0.00,848.000000,,2013-08-18 18:42:00,
2013-08-18 12:52:00,70.0,40.0,-100.00,South,179,7.0,13.0,33,0.00,,,0.00,848.000000,,2013-08-18 18:52:00,
2013-08-18 13:22:00,73.0,39.0,-100.00,SSW,198,8.0,15.0,29,0.00,,,0.00,919.000000,,2013-08-18 19:22:00,
2013-08-18 13:31:00,73.0,39.0,-100.00,SSW,198,8.0,15.0,29,0.00,,,0.00,919.000000,,2013-08-18 19:31:00,
2013-08-18 13:41:00,73.0,39.0,-100.00,SSW,198,8.0,15.0,29,0.00,,,0.00,919.000000,,2013-08-18 19:41:00,
2013-08-18 13:52:00,73.0,39.0,-100.00,SSW,198,8.0,15.0,29,0.00,,,0.00,919.000000,,2013-08-18 19:52:00,
2013-08-18 14:22:00,74.0,36.0,-100.00,South,174,9.0,17.0,25,0.00,,,0.00,1002.000000,,2013-08-18 20:22:00,
2013-08-18 14:32:00,74.0,36.0,-100.00,South,174,9.0,17.0,25,0.00,,,0.00,1002.000000,,2013-08-18 20:32:00,
2013-08-18 14:42:00,74.0,36.0,-100.00,South,174,9.0,17.0,25,0.00,,,0.00,1002.000000,,2013-08-18 20:42:00,
2013-08-18 14:52:00,74.0,36.0,-100.00,South,174,9.0,17.0,25,0.00,,,0.00,1002.000000,,2013-08-18 20:52:00,
2013-08-18 15:21:00,67.0,40.0,-100.00,NNW,339,5.0,18.0,37,0.00,,,0.00,370.000000,,2013-08-18 21:21:00,
2013-08-18 15:32:00,67.0,40.0,-100.00,NNW,339,5.0,18.0,37,0.00,,,0.00,370.000000,,2013-08-18 21:32:00,
2013-08-18 15:42:00,67.0,40.0,-100.00,NNW,339,5.0,18.0,37,0.00,,,0.00,370.000000,,2013-08-18 21:42:00,
2013-08-18 15:53:00,67.0,40.0,-100.00,NNW,339,5.0,18.0,37,0.00,,,0.00,370.000000,,2013-08-18 21:53:00,
2013-08-18 16:23:00,65.0,35.0,-100.00,NW,324,6.0,17.0,33,0.00,,,0.00,126.000000,,2013-08-18 22:23:00,
2013-08-18 16:34:00,65.0,35.0,-100.00,NW,324,6.0,17.0,33,0.00,,,0.00,126.000000,,2013-08-18 22:34:00,
2013-08-18 16:42:00,65.0,35.0,-100.00,NW,324,6.0,17.0,33,0.00,,,0.00,126.000000,,2013-08-18 22:42:00,
2013-08-18 16:52:00,65.0,35.0,-100.00,NW,324,6.0,17.0,33,0.00,,,0.00,126.000000,,2013-08-18 22:52:00,
2013-08-18 17:22:00,69.0,38.0,-100.00,WNW,299,7.0,13.0,32,0.00,,,0.00,314.000000,,2013-08-18 23:22:00,
2013-08-18 17:33:00,69.0,38.0,-100.00,WNW,299,7.0,13.0,32,0.00,,,0.00,314.000000,,2013-08-18 23:33:00,
2013-08-18 17:42:00,69.0,38.0,-100.00,WNW,299,7.0,13.0,32,0.00,,,0.00,314.000000,,2013-08-18 23:42:00,
2013-08-18 17:52:00,69.0,38.0,-100.00,WNW,299,7.0,13.0,32,0.00,,,0.00,314.000000,,2013-08-18 23:52:00,
2013-08-18 18:21:00,69.0,37.0,-100.00,West,260,5.0,15.0,31,0.00,,,0.00,331.000000,,2013-08-19 00:21:00,
2013-08-18 18:32:00,69.0,37.0,-100.00,West,260,5.0,15.0,31,0.00,,,0.00,331.000000,,2013-08-19 00:32:00,
2013-08-18 18:42:00,69.0,37.0,-100.00,West,260,5.0,15.0,31,0.00,,,0.00,331.000000,,2013-08-19 00:42:00,
2013-08-18 18:52:00,69.0,37.0,-100.00,West,260,5.0,15.0,31,0.00,,,0.00,331.000000,,2013-08-19 00:52:00,
2013-08-18 19:22:00,71.0,36.0,-100.00,SSW,193,5.0,8.0,28,0.00,,,-99.99,275.000000,,2013-08-19 01:22:00,
2013-08-18 19:32:00,71.0,36.0,-100.00,SSW,193,5.0,8.0,28,0.00,,,-99.99,275.000000,,2013-08-19 01:32:00,
2013-08-18 19:41:00,71.0,36.0,-100.00,SSW,193,5.0,8.0,28,0.00,,,-99.99,275.000000,,2013-08-19 01:41:00,
2013-08-18 19:52:00,71.0,36.0,-100.00,SSW,193,5.0,8.0,28,0.00,,,-99.99,275.000000,,2013-08-19 01:52:00,
2013-08-18 20:21:00,61.0,38.0,-100.00,SSE,165,10.0,16.0,43,0.00,,,0.00,110.000000,,2013-08-19 02:21:00,
2013-08-18 20:32:00,61.0,38.0,-100.00,SSE,165,10.0,16.0,43,0.00,,,0.00,110.000000,,2013-08-19 02:32:00,
2013-08-18 20:42:00,61.0,38.0,-100.00,SSE,165,10.0,16.0,43,0.00,,,0.00,110.000000,,2013-08-19 02:42:00,
2013-08-18 20:52:00,61.0,38.0,-100.00,SSE,165,10.0,16.0,43,0.00,,,0.00,110.000000,,2013-08-19 02:52:00,
2013-08-18 21:21:00,56.0,40.0,-100.00,SE,135,6.0,15.0,55,0.00,,,0.00,2.000000,,2013-08-19 03:21:00,
2013-08-18 21:33:00,56.0,40.0,-100.00,SE,135,6.0,15.0,55,0.00,,,0.00,2.000000,,2013-08-19 03:33:00,
2013-08-18 21:42:00,56.0,40.0,-100.00,SE,135,6.0,15.0,55,0.00,,,0.00,2.000000,,2013-08-19 03:42:00,
2013-08-18 21:53:00,56.0,40.0,-100.00,SE,135,6.0,15.0,55,0.00,,,0.00,2.000000,,2013-08-19 03:53:00,
2013-08-18 22:23:00,56.0,40.0,-100.00,ESE,116,6.0,9.0,55,0.00,,,0.00,0.000000,,2013-08-19 04:23:00,
2013-08-18 22:33:00,56.0,40.0,-100.00,ESE,116,6.0,9.0,55,0.00,,,0.00,0.000000,,2013-08-19 04:33:00,
2013-08-18 22:42:00,56.0,40.0,-100.00,ESE,116,6.0,9.0,55,0.00,,,0.00,0.000000,,2013-08-19 04:42:00,
2013-08-18 22:53:00,56.0,40.0,-100.00,ESE,116,6.0,9.0,55,0.00,,,0.00,0.000000,,2013-08-19 04:53:00,
2013-08-18 23:22:00,56.0,38.0,-100.00,SE,125,5.0,7.0,51,0.00,,,0.00,0.000000,,2013-08-19 05:22:00,
2013-08-18 23:33:00,56.0,38.0,-100.00,SE,125,5.0,7.0,51,0.00,,,0.00,0.000000,,2013-08-19 05:33:00,
2013-08-18 23:42:00,56.0,38.0,-100.00,SE,125,5.0,7.0,51,0.00,,,0.00,0.000000,,2013-08-19 05:42:00,
2013-08-18 23:52:00,56.0,38.0,-100.00,SE,125,5.0,7.0,51,0.00,,,0.00,0.000000,,2013-08-19 05:52:00,